Location: Peebles
(55.6412°N, 3.1714°W)
Time: 14:48:11
(UTC+00:00)

MOZHAYETS 4 - Pass Details

Date: 15 December 2023
Orbit: 654 x 672 km, 98.3° (Epoch: 03 March)

Event Time Altitude Azimuth Distance (km) Brightness Sun altitude
Exits shadow 16:41:45 - 14° (NNE) 3,056 10.7 -7.8°
Rises 16:41:47 0° 14° (NNE) 3,040 10.7 -7.8°
Reaches altitude 10° 16:44:02 10° 13° (NNE) 2,121 9.9 -8.1°
Maximum altitude 16:48:40 76° 289° (WNW) 701 7.9 -8.7°
Drops below altitude 10° 16:53:15 10° 204° (SSW) 2,102 11.1 -9.2°
Sets 16:55:28 0° 203° (SSW) 3,010 12.0 -9.5°
